Location: Gälforsberget
(66.6500°N, 22.4167°E)
Time: 21:20:33
(UTC+00:00)

Meteor 2-21 Rocket - Pass Details

Date: 11 April 2026
Orbit: 936 x 967 km, 82.5° (Epoch: 11 May)

Event Time Altitude Azimuth Distance (km) Brightness Sun altitude
Rises 19:15:02 0° 340° (NNW) 3,615 8.7 -6.9°
Reaches altitude 10° 19:17:32 10° 341° (NNW) 2,670 7.9 -7.1°
Maximum altitude 19:23:39 85° 70° (ENE) 958 4.5 -7.5°
Drops below altitude 10° 19:29:48 10° 161° (SSE) 2,676 6.3 -8.0°
Enters shadow 19:30:40 - 161° (SSE) 3,007 6.5 -8.0°
